Location: Splawn
(30.9202°N, 96.9858°W)
Time: 08:55:17
(UTC+00:00)

Transit 2A Rocket - Pass Details

Date: 03 March 2020
Orbit: 588 x 915 km, 66.7° (Epoch: 07 April)

Event Time Altitude Azimuth Distance (km) Brightness Sun altitude
Rises 00:52:10 0° 166° (SSE) 2,806 7.8 -6.1°
Reaches altitude 10° 00:55:06 10° 145° (SE) 1,904 6.8 -6.7°
Maximum altitude 00:57:43 16° 106° (ESE) 1,553 6.0 -7.3°
Drops below altitude 10° 01:00:23 10° 68° (ENE) 1,933 6.5 -7.8°
Enters shadow 01:01:16 - 59° (ENE) 2,180 6.8 -8.0°
Sets 01:03:22 0° 47° (NE) 2,872 - -8.5°
